[[{"header":{"parameterUnit":"m.s-1","parameterCategory":1,"la1":30.2991,"la2":30.254,"lo1":-89.0895,"lo2":-89.0444,"dy":0.0017,"dx":0.0017,"nx":28,"ny":28,"refTime":"2024-10-19T21:00:00:Z","depth":0,"parameterNumber":2,"parameterNumberName":"U-component_of_WINDS"},"data":[0,0,0,0,0,0,0,0,0,0,0,0,0,0,0,0,0,0,0,0,0,0,0,0,0,0,0,0,0,0,0,0,0,0,0,0,0,0,0,0,0,0,0,0,0,0,0,0,0,0,0,0,0,0,0,0,0,0,-2.8821,-2.8821,0,-2.8802,-2.8802,-2.8802,-2.8721,-2.872,-2.8718,-2.8716,-2.8699,-2.87,-2.8701,0,0,0,0,0,0,0,0,0,0,0,0,0,-2.879,-2.8791,-2.8821,-2.8821,-2.882,-2.8802,-2.8802,-2.8801,-2.8722,-2.8719,-2.8717,-2.8715,-2.8698,-2.87,-2.8701,0,0,0,0,0,0,0,0,0,0,0,0,0,-2.8791,-2.8792,-2.8821,-2.8778,-2.8774,-2.8802,-2.8802,-2.8801,-2.8722,-2.8719,-2.8717,-2.8714,-2.8698,-2.87,-2.8702,-2.8769,0,0,-2.8707,-2.8708,0,0,0,0,0,0,0,0,-2.8791,-2.8792,-2.8785,-2.8781,-2.8777,-2.8761,-2.8785,-2.8791,-2.8723,-2.8742,-2.8716,-2.8713,-2.8722,-2.8722,-2.8724,-2.8769,-2.8768,-2.8708,-2.8709,-2.871,-2.871,0,0,0,0,0,0,0,-2.8791,-2.8792,-2.8813,-2.8785,-2.878,-2.8761,-2.8758,-2.8785,-2.8748,-2.874,-2.8734,-2.8733,-2.8719,-2.8723,-2.8723,-2.8768,-2.8707,-2.8709,-2.871,-2.8711,-2.8869,-2.8872,0,0,0,0,0,0,-2.8797,-2.8793,-2.8814,-2.8813,-2.8777,-2.8764,-2.876,-2.8769,-2.8747,-2.8741,-2.8736,-2.8729,-2.8721,-2.8721,-2.8722,-2.8802,-2.871,-2.8711,-2.8712,-2.8866,-2.887,-2.8873,0,0,0,0,0,0,-2.8796,-2.8799,-2.8815,-2.8801,-2.8802,-2.8767,-2.8778,-2.877,-2.8773,-2.8744,-2.8737,-2.8746,-2.8719,-2.872,-2.8759,-2.88,-2.8712,-2.8714,-2.8862,-2.8867,-2.8871,-2.8961,0,0,0,0,0,0,-2.8796,-2.88,-2.8824,-2.8802,-2.8803,-2.8851,-2.878,-2.8772,-2.8777,-2.8769,-2.8752,-2.8746,-2.8716,-2.8756,-2.8761,-2.8801,-2.8715,-2.8859,-2.8865,-2.887,-2.8954,-2.8968,-2.898,0,0,0,0,0,-2.8795,-2.885,-2.8826,-2.8829,-2.8833,-2.8853,-2.8853,-2.8817,-2.878,-2.8806,-2.8787,-2.8747,-2.8795,-2.8761,-2.8765,-2.8807,-2.8856,-2.8863,-2.8869,-2.8949,-2.8966,-2.898,0,0,0,0,0,0,-2.8878,-2.8846,-2.8819,-2.8869,-2.8864,-2.884,-2.887,-2.8836,-2.8843,-2.8835,-2.879,-2.8787,-2.8833,-2.8824,-2.8787,-2.8873,-2.8819,-2.8827,-2.8877,-2.8893,-2.8906,-2.8908,-2.8717,0,0,0,0,0,-2.8902,-2.892,-2.8892,-2.8939,-2.8938,-2.8905,-2.8912,-2.8885,-2.8879,-2.8877,-2.886,-2.8857,-2.8871,-2.8881,-2.8893,-2.8952,-2.8949,-2.8983,-2.8996,-2.9007,-2.9015,-2.9048,-2.9064,-2.8896,-2.8895,-2.8895,0,0,-2.8952,-2.8937,-2.8951,-2.8955,-2.8948,-2.897,-2.8904,-2.8928,-2.8944,-2.888,-2.8917,-2.8905,-2.8898,-2.8948,-2.8969,-2.8942,-2.9061,-2.9016,-2.9025,-2.9027,-2.9057,-2.9073,-2.9087,-2.89,-2.8899,-2.8899,0,0,-2.9054,-2.9044,-2.9083,-2.9077,-2.9068,-2.9046,-2.9056,-2.9036,-2.9026,-2.9062,-2.9015,-2.9033,-2.9059,-2.9056,-2.9058,-2.9162,-2.9126,-2.9167,-2.9234,-2.9267,-2.928,-2.9292,-2.9331,-2.9345,-2.9174,-2.9174,-2.9175,0,-2.9117,-2.9147,-2.9107,-2.9135,-2.9139,-2.9082,-2.9122,-2.9119,-2.9115,-2.9119,-2.9088,-2.912,-2.9111,-2.9161,-2.9186,-2.9189,-2.92,-2.9169,-2.9281,-2.9293,-2.9303,-2.9339,-2.9354,-2.918,-2.9179,-2.9178,-2.9178,0,-2.9226,-2.9248,-2.928,-2.9277,-2.9285,-2.9319,-2.9285,-2.9298,-2.927,-2.9252,-2.929,-2.9278,-2.9287,-2.9296,-2.9269,-2.9343,-2.9326,-2.9289,-2.9234,-2.9325,-2.9359,-2.9372,-2.9187,-2.9185,-2.9184,-2.9182,0,0,-2.938,-2.9355,-2.9368,-2.9367,-2.9353,-2.937,-2.9402,-2.941,-2.9423,-2.9422,-2.9449,-2.9473,-2.9438,-2.9441,-2.9414,-2.9442,-2.9528,-2.9401,-2.9401,-2.9427,-2.9611,-2.964,-2.9657,-2.9504,-2.9506,-2.9508,-2.9612,0,-2.9478,-2.9532,-2.9497,-2.9557,-2.9577,-2.9524,-2.9553,-2.9548,-2.9532,-2.9548,-2.9531,-2.9549,-2.9501,-2.9503,-2.9529,-2.9512,-2.9564,-2.9504,-2.953,-2.9532,-2.9535,-2.9674,-2.9704,-2.9803,-2.9625,-2.9627,-2.9628,0,-2.96,-2.9605,-2.9667,-2.9651,-2.9658,-2.9684,-2.9691,-2.9706,-2.9701,-2.9687,-2.9691,-2.9657,-2.9689,-2.9635,-2.9679,-2.9639,-2.9648,-2.9642,-2.9645,-2.9647,-2.9586,-2.9682,-2.9833,-2.9849,-2.9648,-2.9647,-2.9645,0,-2.9709,-2.973,-2.977,-2.9771,-2.9753,-2.9773,-2.9767,-2.9758,-2.9767,-2.9772,-2.9777,-2.9787,-2.9792,-2.9801,-2.9772,-2.9734,-2.9821,-2.9763,-2.9813,-2.9814,-2.9834,-2.9834,-2.9992,-2.9838,-2.9837,-2.9837,-2.9837,0,-2.9823,-2.9863,-2.9819,-2.9844,-2.9888,-2.9849,-2.9894,-2.9882,-2.9875,-2.9898,-2.9853,-2.9875,-2.9834,-2.9853,-2.983,-2.9872,-2.9874,-2.9866,-2.9859,-2.9871,-2.9872,-2.9877,-2.987,-2.9841,-2.984,-2.9839,-2.9839,0,-2.9951,-2.9923,-2.9964,-2.9944,-2.994,-2.9974,-2.9957,-2.998,-2.9961,-2.9991,-2.9996,-2.9967,-2.9987,-2.9958,-2.9975,-2.996,-3.0018,-3.0,-3.002,-3.0015,-3.0067,-3.0063,-3.0235,-3.0256,-3.0087,-3.0089,-3.009,0,-3.0027,-3.0057,-3.0041,-3.0052,-3.0049,-3.0068,-3.0076,-3.004,-3.005,-3.0048,-3.0072,-3.0088,-3.0099,-3.0134,-3.0115,-3.0128,-3.0112,-3.0171,-3.0113,-3.0125,-3.0115,-3.0114,-3.0118,-3.0183,-3.0185,-3.0187,-3.0188,0,-3.0165,-3.015,-3.0163,-3.0172,-3.0184,-3.0189,-3.0191,-3.0204,-3.0165,-3.018,-3.02,-3.0208,-3.0226,-3.0244,-3.0252,-3.0247,-3.0213,-3.0206,-3.0219,-3.0231,-3.0242,-3.0239,-3.0054,-3.0203,-3.0201,-3.02,-3.0199,-3.0199,-3.027,-3.0295,-3.0288,-3.0305,-3.0303,-3.0307,-3.0328,-3.0312,-3.0328,-3.034,-3.0317,-3.0343,-3.0339,-3.0347,-3.0346,-3.0367,-3.0341,-3.0359,-3.0364,-3.0369,-3.0378,-3.0238,-3.0368,-3.0368,-3.0367,-3.0367,-3.0367,0,-3.0407,-3.04,-3.0416,-3.0421,-3.0436,-3.0401,-3.0402,-3.0416,-3.044,-3.0439,-3.0451,-3.0475,-3.0492,-3.0476,-3.049,-3.051,-3.0495,-3.0515,-3.0514,-3.0514,-3.0399,-3.0388,-3.0528,-3.0528,-3.0528,-3.0527,-3.0527,-3.0527,-3.048,-3.0521,-3.0506,-3.0546,-3.0539,-3.0564,-3.0568,-3.0572,-3.0571,-3.06,-3.0614,-3.0603,-3.0596,-3.061,-3.0625,-3.062,-3.0628,-3.0655,-3.0645,-3.0537,-3.0522,-3.0507,-3.0496,-3.0657,-3.0657,-3.0758,-3.0759,-3.076]},{"header":{"parameterUnit":"m.s-1","parameterCategory":1,"la1":30.2991,"la2":30.254,"lo1":-89.0895,"lo2":-89.0444,"dy":0.0017,"dx":0.0017,"nx":28,"ny":28,"refTime":"2024-10-19T21:00:00:Z","depth":0,"parameterNumber":3,"parameterNumberName":"V-component_of_WINDS"},"data":[0,0,0,0,0,0,0,0,0,0,0,0,0,0,0,0,0,0,0,0,0,0,0,0,0,0,0,0,0,0,0,0,0,0,0,0,0,0,0,0,0,0,0,0,0,0,0,0,0,0,0,0,0,0,0,0,0,0,-1.5859,-1.5859,0,-1.5894,-1.5894,-1.5894,-1.5869,-1.5868,-1.5867,-1.5866,-1.5902,-1.5904,-1.5906,0,0,0,0,0,0,0,0,0,0,0,0,0,-1.5771,-1.5773,-1.5859,-1.586,-1.586,-1.5894,-1.5894,-1.5895,-1.5869,-1.5868,-1.5866,-1.5865,-1.5901,-1.5903,-1.5906,0,0,0,0,0,0,0,0,0,0,0,0,0,-1.5808,-1.5773,-1.5859,-1.5851,-1.5851,-1.5894,-1.5894,-1.5895,-1.5869,-1.5868,-1.5866,-1.5864,-1.59,-1.5903,-1.5906,-1.5958,0,0,-1.5915,-1.5917,0,0,0,0,0,0,0,0,-1.5806,-1.5811,-1.5852,-1.5852,-1.5852,-1.5875,-1.5876,-1.5916,-1.587,-1.5862,-1.5866,-1.5864,-1.5894,-1.5898,-1.5908,-1.596,-1.5962,-1.5916,-1.5917,-1.5919,-1.592,0,0,0,0,0,0,0,-1.5803,-1.5809,-1.5873,-1.5853,-1.5852,-1.5846,-1.5849,-1.5884,-1.5887,-1.5863,-1.5861,-1.5866,-1.5894,-1.5905,-1.5909,-1.5962,-1.5916,-1.5918,-1.592,-1.5921,-1.606,-1.6062,0,0,0,0,0,0,-1.5801,-1.5807,-1.5872,-1.5874,-1.5824,-1.5849,-1.5853,-1.5869,-1.5887,-1.5888,-1.5867,-1.5864,-1.5901,-1.5905,-1.591,-1.5974,-1.5919,-1.5922,-1.5923,-1.6058,-1.606,-1.6062,0,0,0,0,0,0,-1.58,-1.5807,-1.587,-1.584,-1.5848,-1.5852,-1.5871,-1.5871,-1.5882,-1.589,-1.5891,-1.5878,-1.59,-1.5906,-1.5947,-1.5975,-1.5923,-1.5926,-1.6056,-1.6059,-1.6061,-1.6101,0,0,0,0,0,0,-1.5797,-1.5807,-1.5827,-1.5841,-1.5849,-1.5907,-1.5873,-1.5873,-1.5887,-1.5884,-1.59,-1.5901,-1.5899,-1.5942,-1.595,-1.5978,-1.5928,-1.6053,-1.6057,-1.606,-1.6098,-1.6105,-1.6111,0,0,0,0,0,-1.5794,-1.5837,-1.5828,-1.5836,-1.5875,-1.5909,-1.5914,-1.591,-1.589,-1.591,-1.5915,-1.5901,-1.5969,-1.5947,-1.5955,-1.5984,-1.6052,-1.6056,-1.606,-1.6094,-1.6104,-1.6111,0,0,0,0,0,0,-1.5826,-1.5838,-1.5829,-1.5877,-1.5892,-1.5904,-1.593,-1.5919,-1.594,-1.5936,-1.593,-1.5934,-1.5978,-1.5984,-1.5959,-1.6036,-1.6008,-1.6014,-1.6031,-1.604,-1.6046,-1.6045,-1.593,0,0,0,0,0,-1.5839,-1.5865,-1.5874,-1.5916,-1.5924,-1.5926,-1.594,-1.5936,-1.5951,-1.5957,-1.5965,-1.598,-1.6005,-1.6022,-1.6046,-1.6097,-1.6101,-1.6121,-1.6128,-1.6134,-1.614,-1.6169,-1.6179,-1.6076,-1.6076,-1.6076,0,0,-1.5866,-1.5875,-1.5893,-1.5923,-1.5934,-1.5962,-1.5931,-1.5962,-1.5983,-1.5962,-1.6002,-1.6008,-1.6024,-1.6072,-1.6093,-1.6079,-1.6169,-1.6139,-1.6144,-1.6147,-1.6175,-1.6184,-1.6193,-1.6079,-1.6079,-1.6078,0,0,-1.5929,-1.5939,-1.5975,-1.5987,-1.6003,-1.6004,-1.6013,-1.6026,-1.603,-1.6069,-1.6054,-1.6078,-1.6121,-1.6134,-1.6147,-1.6214,-1.6202,-1.6221,-1.6259,-1.6288,-1.6296,-1.6303,-1.6329,-1.6338,-1.6227,-1.6227,-1.6227,0,-1.5961,-1.6003,-1.5995,-1.6028,-1.6042,-1.6023,-1.606,-1.6071,-1.6095,-1.6106,-1.6089,-1.6143,-1.6152,-1.6203,-1.6219,-1.6229,-1.624,-1.6221,-1.6295,-1.6302,-1.6309,-1.6334,-1.6343,-1.6229,-1.6229,-1.6229,-1.6228,0,-1.6042,-1.6071,-1.6098,-1.6122,-1.6138,-1.6173,-1.6171,-1.6189,-1.6182,-1.6184,-1.6225,-1.6236,-1.6262,-1.6272,-1.6266,-1.6322,-1.6313,-1.6296,-1.6268,-1.6321,-1.6345,-1.6354,-1.6233,-1.6232,-1.6231,-1.623,0,0,-1.613,-1.6148,-1.6158,-1.6169,-1.6185,-1.6208,-1.6241,-1.6266,-1.6282,-1.6298,-1.6327,-1.6363,-1.6347,-1.6361,-1.6355,-1.638,-1.6435,-1.636,-1.636,-1.6376,-1.65,-1.6515,-1.6526,-1.6426,-1.6428,-1.6429,-1.6499,0,-1.6196,-1.6256,-1.6249,-1.6306,-1.6333,-1.6314,-1.6343,-1.6357,-1.6359,-1.6383,-1.6385,-1.6412,-1.6387,-1.6396,-1.6419,-1.6424,-1.646,-1.6418,-1.6455,-1.6456,-1.6455,-1.6538,-1.6555,-1.6621,-1.6508,-1.651,-1.6511,0,-1.6283,-1.6303,-1.6362,-1.6374,-1.6386,-1.6412,-1.6435,-1.6457,-1.6471,-1.6471,-1.6486,-1.6476,-1.651,-1.6478,-1.6526,-1.6497,-1.6511,-1.6515,-1.6517,-1.6524,-1.6489,-1.6549,-1.6641,-1.6653,-1.6525,-1.6523,-1.6522,0,-1.6345,-1.6385,-1.6427,-1.6436,-1.6451,-1.647,-1.6477,-1.649,-1.6505,-1.6524,-1.6534,-1.6557,-1.657,-1.6588,-1.6584,-1.6561,-1.6633,-1.6601,-1.6636,-1.6636,-1.6655,-1.6655,-1.6754,-1.6658,-1.6658,-1.6658,-1.6658,0,-1.6422,-1.646,-1.6455,-1.6481,-1.6522,-1.6514,-1.6555,-1.6559,-1.6571,-1.6597,-1.6581,-1.6606,-1.6598,-1.6623,-1.662,-1.6661,-1.6666,-1.6668,-1.6667,-1.6671,-1.6671,-1.6683,-1.668,-1.6661,-1.666,-1.666,-1.6659,0,-1.65,-1.6498,-1.6542,-1.6552,-1.6555,-1.6585,-1.6594,-1.6618,-1.6618,-1.6652,-1.6659,-1.666,-1.6688,-1.6685,-1.6717,-1.6715,-1.6766,-1.6758,-1.6762,-1.6761,-1.6798,-1.6795,-1.691,-1.6926,-1.6818,-1.6819,-1.6819,0,-1.6551,-1.658,-1.6593,-1.6609,-1.6618,-1.6644,-1.666,-1.6652,-1.6669,-1.6687,-1.6709,-1.6736,-1.6757,-1.6803,-1.6806,-1.683,-1.6825,-1.6863,-1.6829,-1.6832,-1.6829,-1.6829,-1.6833,-1.6872,-1.6873,-1.6874,-1.6875,0,-1.6644,-1.6641,-1.6664,-1.6687,-1.6706,-1.6723,-1.6739,-1.6754,-1.6747,-1.6767,-1.6795,-1.6812,-1.6844,-1.6871,-1.6893,-1.69,-1.6888,-1.6885,-1.6895,-1.6901,-1.6903,-1.6906,-1.6784,-1.6883,-1.6882,-1.6882,-1.6881,-1.6881,-1.6712,-1.6737,-1.675,-1.6776,-1.6787,-1.6802,-1.6826,-1.6829,-1.6852,-1.6878,-1.6871,-1.6904,-1.6917,-1.6946,-1.6955,-1.6981,-1.6967,-1.6981,-1.6985,-1.6989,-1.6995,-1.6896,-1.6984,-1.6984,-1.6984,-1.6984,-1.6983,0,-1.6806,-1.6813,-1.6837,-1.686,-1.6881,-1.6864,-1.6881,-1.69,-1.6929,-1.6942,-1.6963,-1.6996,-1.7022,-1.7026,-1.7051,-1.7071,-1.7066,-1.7078,-1.7078,-1.7081,-1.7004,-1.6995,-1.7082,-1.7082,-1.7082,-1.7082,-1.7082,-1.7082,-1.6857,-1.69,-1.6898,-1.6945,-1.6952,-1.6984,-1.6995,-1.7009,-1.702,-1.7057,-1.7079,-1.7081,-1.7091,-1.7116,-1.714,-1.714,-1.7151,-1.7167,-1.7166,-1.7095,-1.7086,-1.7076,-1.7068,-1.7169,-1.7169,-1.724,-1.7241,-1.7241]}]]